Home   Weather   Jackson   Past weeks

Flag for USA Past Weather in Jackson, Wyoming, USA — Yesterday and Last 2 Weeks

Now
32 °F

Mostly cloudy.


Feels Like: 24 °F
Forecast: 16 / 23 °F
Wind: 10 mph from West

Location: Jackson Hole

Current Time: Dec 10, 2016 at 9:10:15 pm

Latest Report: Dec 10, 2016 at 8:35 pm


Visibility: 10 mi

Pressure: 29.75 "Hg (23.45 "Hg at 1901m altitude)

Humidity: 75%

Dew Point: 25 °F

Location of JacksonLocation

Past Weather in Jackson — Graph

°F

Jackson Temperature Yesterday

Maximum temperature yesterday: 28 °F (at 2:51 pm)
Minimum temperature yesterday: 14 °F (at 12:35 am)
Average temperature yesterday: 21 °F

High & Low Weather Summary for the Past Weeks

 TemperatureHumidityPressure
High43 °F (Nov 26, 2:35 pm)100% (Nov 26, 5:55 am)30.29 "Hg (Nov 26, 5:55 am)
Low-24 °F (Dec 8, 6:58 am)29% (Nov 26, 2:55 pm)29.43 "Hg (Nov 28, 5:55 am)
Average17 °F87%29.92 "Hg
* Reported Nov 25 7:15 pm — Dec 10 7:55 pm, Jackson, Weather by CustomWeather, © 2016

Note: Actual official high and low records may vary slightly from our data, if they occured in-between our weather recording intervals... More about our weather records

Advertising

Jackson Weather History for the Previous 24 Hours

Scroll right to see more
 ConditionsComfort  
Time TempWeatherWind HumidityBarometerVisibility
7:55 pm
Sat, Dec 10
34 °FMostly cloudy.17 mph65%29.74 "Hg10 mi
7:35 pm34 °FMostly cloudy.16 mph65%29.74 "Hg10 mi
6:55 pm32 °FMostly cloudy.13 mph69%29.74 "Hg10 mi
6:35 pm34 °FMostly cloudy.10 mph60%29.74 "Hg10 mi
6:15 pm34 °FPartly cloudy.10 mph60%29.74 "Hg10 mi
5:55 pm34 °FPassing clouds.16 mph56%29.73 "Hg10 mi
5:35 pm36 °FPassing clouds.17 mph52%29.72 "Hg10 mi
5:15 pm36 °FPartly cloudy.23 mph56%29.71 "Hg10 mi
4:55 pm36 °FPassing clouds.32 mph65%29.71 "Hg5 mi
4:35 pm36 °FMostly cloudy.25 mph70%29.72 "Hg9 mi
3:58 pm37 °FScattered showers. Partly sunny.21 mph60%29.72 "Hg10 mi
3:35 pm37 °FMore clouds than sun.17 mph65%29.71 "Hg10 mi
2:55 pm36 °FMostly cloudy.13 mph81%29.71 "Hg10 mi
2:35 pm36 °FMostly cloudy.20 mph87%29.70 "Hg10 mi
2:15 pm36 °FMostly cloudy.18 mph87%29.70 "Hg10 mi
1:55 pm36 °FBroken clouds.10 mph87%29.70 "Hg10 mi
1:35 pm34 °FMostly cloudy.14 mph93%29.70 "Hg8 mi
1:15 pm34 °FBroken clouds.9 mph100%29.70 "Hg10 mi
12:55 pm34 °FBroken clouds.21 mph100%29.68 "Hg5 mi
12:35 pm34 °FLow clouds.20 mph100%29.71 "Hg2 mi
12:15 pm34 °FLow clouds.18 mph100%29.73 "Hg1 mi
11:55 am34 °FLow clouds.16 mph100%29.73 "Hg1 mi
11:35 am34 °FOvercast.16 mph100%29.74 "Hg1 mi
10:55 am34 °FLight snow. Overcast.16 mph100%29.76 "Hg1 mi
10:35 am34 °FOvercast.15 mph100%29.76 "Hg1 mi
10:15 am34 °FMostly cloudy.15 mph100%29.76 "Hg1 mi
9:55 am34 °FMostly cloudy.12 mph100%29.77 "Hg1 mi
9:35 am34 °FMore clouds than sun.13 mph100%29.77 "Hg1 mi
9:15 am34 °FMostly cloudy.9 mph100%29.77 "Hg1 mi
8:55 am34 °FLow clouds.10 mph100%29.77 "Hg2 mi
8:35 am34 °FLow clouds.13 mph100%29.77 "Hg1 mi
8:15 am34 °FLow clouds.8 mph100%29.78 "Hg1 mi
7:55 am34 °FLight snow. Low clouds.9 mph100%29.79 "Hg2 mi
7:35 am34 °FLow clouds.10 mph100%29.80 "Hg2 mi
7:15 am34 °FLow clouds.8 mph100%29.80 "Hg2 mi
6:55 am34 °FLight snow. Low clouds.12 mph100%29.80 "Hg1 mi
6:35 am34 °FLow clouds.10 mph100%29.81 "Hg1 mi
6:15 am32 °FLow clouds.8 mph100%29.81 "Hg1 mi
5:55 am32 °FLow clouds.8 mph100%29.81 "Hg2 mi
5:35 am32 °FLow clouds.9 mph100%29.82 "Hg1 mi
5:15 am32 °FLow clouds.7 mph93%29.83 "Hg1 mi
4:55 am32 °FLow clouds.6 mph93%29.83 "Hg1 mi
4:35 am30 °FLow clouds.6 mph100%29.84 "Hg1 mi
4:15 am30 °FLow clouds.5 mph100%29.84 "Hg1 mi
3:55 am32 °FLow clouds.6 mph100%29.85 "Hg1 mi
3:35 am30 °FLow clouds.7 mph100%29.86 "Hg1 mi
2:55 am30 °FLow clouds.7 mph100%29.87 "Hg2 mi
2:35 am30 °FMostly cloudy.6 mph100%29.88 "Hg2 mi
2:15 am30 °FMostly cloudy.7 mph100%29.88 "Hg3 mi
1:55 am30 °FOvercast.9 mph100%29.88 "Hg3 mi
1:35 am30 °FMostly cloudy.7 mph93%29.89 "Hg2 mi
1:15 am30 °FMostly cloudy.7 mph100%29.90 "Hg2 mi
12:55 am30 °FPartly cloudy.9 mph93%29.91 "Hg3 mi
12:35 am28 °FPartly cloudy.10 mph100%29.92 "Hg5 mi
12:15 am28 °FMostly cloudy.10 mph100%29.93 "Hg3 mi
11:55 pm
Fri, Dec 9
28 °FMostly cloudy.6 mph100%29.94 "Hg3 mi
11:35 pm28 °FMostly cloudy.10 mph100%29.95 "Hg2 mi
11:15 pm28 °FPartly cloudy.8 mph100%29.95 "Hg8 mi
10:55 pm28 °FMostly cloudy.8 mph100%29.96 "Hg5 mi
10:35 pm28 °FMostly cloudy.13 mph100%29.97 "Hg9 mi
9:55 pm28 °FLow clouds.12 mph100%29.96 "Hg2 mi
9:35 pm28 °FLow clouds.9 mph100%29.97 "Hg2 mi
9:15 pm28 °FMostly cloudy.8 mph100%29.97 "Hg5 mi
Weather by CustomWeather, © 2016

See weather overviewHow to use our weather pages